Mobridge, SD

10:39 PM CDT on September 25, 2016 (GMT -0500)
Mobridge Municipal

Weather History for KMBG - October, 2011

Change the Weather History Date:

Saturday, October 15, 2011

  Actual Average Record
Temperature  
Mean Temperature 46 °F 48 °F  
Max Temperature 57 °F 61 °F 87 °F (1958)
Min Temperature 34 °F 35 °F 24 °F (1970)
Degree Days  
Heating Degree Days 19 17  
Month to date heating degree days 102 219  
Since 1 July heating degree days 288 439  
Cooling Degree Days 0 0  
Month to date cooling degree days 34 0  
Year to date cooling degree days 684 641  
Moisture  
Dew Point 36 °F    
Average Humidity 65    
Maximum Humidity 92    
Minimum Humidity 38    
Precipitation  
Precipitation 0.01 in 0.06 in 1.86 in (1980)
Month to date precipitation 2.35 0.77  
Year to date precipitation 18.81 16.22  
Snow  
Snow 0.00 in - - ()
Month to date snowfall 0.0  
Since 1 July snowfall 0.0  
Snow Depth 0.00 in    
Sea Level Pressure  
Sea Level Pressure 29.93 in    
Wind  
Wind Speed 4 mph (North)    
Max Wind Speed 14 mph    
Max Gust Speed 18 mph    
Visibility 10 miles    
Events Rain    
T = Trace of Precipitation, MM = Missing Value Source: NWS Daily Summary

Daily Weather History Graph

Daily Weather History Graph

Search for Another Location

Airport or City:

Trip Planner

Search our weather history database for the weather conditions in past years. The results will help you decide how hot, cold, wet, or windy it might be!

Date:

Astronomy

Oct. 15, 2011 Rise Set
Actual Time 7:57 AM CDT 6:56 PM CDT
Civil Twilight 7:27 AM CDT 7:26 PM CDT
Nautical Twilight 6:53 AM CDT 8:00 PM CDT
Astronomical Twilight 6:19 AM CDT 8:34 PM CDT
Moon 8:42 PM CDT (10/15) 11:35 AM CDT (10/15)
Length of Visible Light 11h 58m
Length of Day
10h 58m
Waning Gibbous, 89% of the Moon is Illuminated
Oct 15
Waning Gibbous
Oct 19
Last Quarter
Oct 26
New
Nov 2
First Quarter
Nov 10
Full

Hourly Weather History & Observations

Time (CDT) Temp. Windchill Dew Point Humidity Pressure Visibility Wind Dir Wind Speed Gust Speed Precip Events Conditions
12:52 AM 39.9 °F 35.8 °F 36.0 °F 86% 29.99 in 10.0 mi North 5.8 mph - N/A   Clear
1:52 AM 41.0 °F 38.0 °F 36.0 °F 82% 29.99 in 10.0 mi North 4.6 mph - N/A   Overcast
2:52 AM 37.9 °F - 35.1 °F 89% 29.99 in 10.0 mi Calm Calm - N/A   Partly Cloudy
3:52 AM 36.0 °F - 34.0 °F 93% 29.98 in 10.0 mi Calm Calm - N/A   Mostly Cloudy
4:52 AM 39.9 °F - 35.1 °F 83% 29.96 in 10.0 mi Calm Calm - N/A   Mostly Cloudy
5:52 AM 37.0 °F - 34.0 °F 89% 29.96 in 10.0 mi Calm Calm - N/A   Clear
6:52 AM 37.9 °F - 35.1 °F 89% 29.96 in 10.0 mi Calm Calm - N/A   Overcast
7:52 AM 41.0 °F - 37.0 °F 86% 29.95 in 10.0 mi Calm Calm - N/A   Overcast
8:52 AM 43.0 °F - 37.9 °F 82% 29.95 in 10.0 mi Calm Calm - N/A   Overcast
9:52 AM 46.0 °F 44.8 °F 35.1 °F 66% 29.94 in 10.0 mi SSW 3.5 mph - N/A   Scattered Clouds
10:52 AM 48.9 °F - 35.1 °F 59% 29.91 in 10.0 mi South 3.5 mph - N/A   Mostly Cloudy
11:52 AM 53.1 °F - 30.9 °F 43% 29.89 in 10.0 mi South 4.6 mph - N/A   Mostly Cloudy
12:52 PM 55.9 °F - 32.0 °F 40% 29.86 in 10.0 mi South 5.8 mph - N/A   Mostly Cloudy
1:52 PM 55.9 °F - 30.9 °F 39% 29.87 in 10.0 mi Calm Calm - N/A   Overcast
2:52 PM 54.0 °F - 33.1 °F 45% 29.87 in 10.0 mi North 6.9 mph - 0.00 in Rain Light Rain
3:52 PM 53.1 °F - 33.1 °F 47% 29.85 in 10.0 mi NE 5.8 mph - 0.00 in   Overcast
4:52 PM 53.1 °F - 34.0 °F 48% 29.85 in 10.0 mi NNE 8.1 mph - N/A   Overcast
5:52 PM 50.0 °F - 36.0 °F 59% 29.86 in 10.0 mi North 6.9 mph - N/A   Overcast
6:52 PM 46.9 °F - 41.0 °F 80% 29.89 in 10.0 mi NNE 10.4 mph - 0.01 in Rain Light Rain
7:52 PM 46.0 °F 41.0 °F 39.0 °F 76% 29.91 in 10.0 mi NNE 10.4 mph - 0.00 in   Overcast
8:52 PM 46.0 °F 42.5 °F 39.0 °F 76% 29.93 in 10.0 mi North 6.9 mph - N/A   Overcast
9:52 PM 46.0 °F 41.9 °F 39.0 °F 76% 29.95 in 10.0 mi NNW 8.1 mph - N/A   Overcast
10:52 PM 42.1 °F 37.1 °F 37.9 °F 85% 29.96 in 10.0 mi NW 8.1 mph - N/A   Clear
11:52 PM 39.9 °F 35.8 °F 37.9 °F 93% 29.97 in 10.0 mi WNW 5.8 mph - N/A   Clear